Regional Weather Roundup
Issued by NWS

Home | Current Version | Previous Version | Text Only | Print | Product List | Glossary Off
Versions: 1 2 3 4 5 6 7 8 9 10 11 12 13 14 15 16 17 18 19 20 21 22 23 24 25 26 27 28 29 30 31 32 33 34 35 36 37 38 39 40 41 42 43 44 45 46 47 48 49 50

000
ASUS45 KBOU 120707
RWRCO

WEATHER ROUNDUP FOR COLORADO
NATIONAL WEATHER SERVICE DENVER/BOULDER CO
1200 AM MST FRI FEB 12 2016

NOTE: "FAIR" INDICATES FEW OR NO CLOUDS BELOW 12000 FEET WITH NO
SIGNIFICANT WEATHER AND/OR OBSTRUCTIONS TO VISIBILITY.

COZ001>005-013-030-031-120800-
...NORTHWEST COLORADO...

CITY           SKY/WX    TMP DP  RH WIND       PRES   REMARKS
CRAIG          CLOUDY    16  11  80 CALM      30.41S
HAYDEN         CLOUDY    23  12  63 E13       30.39S WCI  11
MEEKER         CLOUDY    22  14  71 NE5       30.40F WCI  16
MOUNT WERNER   NOT AVBL
STEAMBOAT SPGS CLOUDY    20  14  78 CALM      30.40F
WALDEN         CLOUDY    25  12  58 SE8       30.41S WCI  16
$$

COZ006>008-011-120800-
...WEST CENTRAL VALLEYS...

CITY           SKY/WX    TMP DP  RH WIND       PRES   REMARKS
GRAND JUNCTION CLOUDY    27  24  89 E6        30.41S WCI  20
MONTROSE       CLOUDY    25  19  78 SE7       30.45R WCI  17
EAGLE          CLOUDY    21  19  93 CALM      30.46S
RIFLE          CLOUDY    23  16  74 CALM      30.43S
DELTA          CLOUDY    31  26  82 E5        30.43F WCI  26
NUCLA          CLOUDY    30  23  74 E6        30.46R WCI  24
$$

COZ017>023-064>068-120800-
...SOUTHWEST COLORADO...

CITY           SKY/WX    TMP DP  RH WIND       PRES   REMARKS
DURANGO        CLOUDY    26  19  74 N3        30.40R
CORTEZ         CLOUDY    25  20  81 NE9       30.40R WCI  15
PAGOSA SPRINGS CLOUDY    24  18  77 CALM      30.42S
TELLURIDE      CLOUDY    32  11  42 SE8       30.50R WCI  25
WOLF CREEK PAS CLOUDY    30   3  31 NE3       30.56F
$$

COZ009-010-012-014-032>034-037-058>063-120800-
...CENTRAL COLORADO...

CITY           SKY/WX    TMP DP  RH WIND       PRES   REMARKS
ASPEN          CLOUDY    24  13  62 SW7       30.43S WCI  16
BUENA VISTA    CLOUDY    27  21  78 W5        30.41S WCI  22
COPPER MTN     CLOUDY    28  12  50 W16G26    30.49F WCI  17
BERTHOUD PASS  FAIR      21  10  63 NW44G49   30.40S WCI   0
COTTONWOOD PAS CLOUDY    37  14  38 W7        30.44F
GUNNISON       CLOUDY     0   0 100 NE3       30.53S
KREMMLING      CLOUDY     5   0  78 CALM      30.47R
LEADVILLE      CLOUDY    22  11  62 NE7       30.44S WCI  13
MONARCH PASS   CLOUDY    27  12  54 MISG      30.60F
SALIDA         NOT AVBL
SUNLIGHT       CLOUDY    32   9  37 CALM        N/A
WILKERSON PASS CLOUDY    30  16  55 NW9G16    30.49F WCI  22
$$

COZ069>075-120800-
...SAN LUIS VALLEY/SANGRE DE CRISTO MOUNTAINS...

CITY           SKY/WX    TMP DP  RH WIND       PRES   REMARKS
ALAMOSA        CLOUDY    24  20  84 W6        30.40S WCI  17
LA VETA PASS   CLOUDY    32  10  40 MISG      30.44S
SAGUACHE       CLOUDY    30  16  55 NW14      30.42F WCI  20
$$

COZ035-036-038>040-120800-
...NORTHERN COLORADO FRONT RANGE...

CITY           SKY/WX    TMP DP  RH WIND       PRES   REMARKS
DENVER INTL AP PTCLDY    35  25  66 SE14      30.26S WCI  26
DMNS CITY PARK   N/A     40  23  50 E8        30.25F
AURORA         PTCLDY    37  25  62 S13       30.27F
FRONT RANGE AP NOT AVBL
ERIE MUNI ARPT CLEAR     42  26  52 SE3       30.25R
BOULDER MUN AP CLEAR     37  27  65 CALM      30.24S
CENTENNIAL     CLOUDY    40  24  53 S14       30.27F
BROOMFIELD     CLEAR     41  27  56 SE7       30.25F
FORT COLLINS   CLOUDY    34  25  69 CALM      30.26S
LONGMONT       CLOUDY    34  28  77 CALM      30.27R
$$

COZ041-046-047-076>085-087-088-120800-
...PIKES PEAK/PALMER DIVIDE AND SOUTHERN FOOTHILLS...

CITY           SKY/WX    TMP DP  RH WIND       PRES   REMARKS
COLO. SPRINGS  CLOUDY    36  23  59 SE9       30.33S
A. F. ACADEMY  CLOUDY    28  21  73 N6        30.32R WCI  22
SCHRIEVER AFB  FAIR      35  22  60 SW7       30.34R WCI  29
ELLICOTT       LGT RAIN N/A N/A N/A SW9       30.32R
FALCON         CLOUDY    30  21  69 NW6       30.33F WCI  24
FORT CARSON    CLOUDY    35  25  66 S9        30.31S HAZE    WCI  28
LIMON          CLOUDY    22  19  89 CALM      30.29S
MONUMENT HILL  CLOUDY    30  21  69 S9        30.32F WCI  22
TRINIDAD       CLOUDY    32  20  61 W9        30.35S WCI  24
$$

COZ042>045-048>051-090-091-120800-
...NORTHEAST COLORADO...

CITY           SKY/WX    TMP DP  RH WIND       PRES   REMARKS
GREELEY ARPT   CLOUDY    32  27  80 CALM      30.27S
AKRON          CLOUDY    34  26  72 SW8       30.26S WCI  27
BURLINGTON     CLOUDY    36  26  67 NW9       30.25S
WRAY           NOT AVBL
STERLING       CLOUDY    34  28  80 W3        30.24F
HOLYOKE        CLOUDY    37  32  81 NW5       30.24R
FORT MORGAN    CLOUDY    39  24  55 CALM      30.27F
$$

COZ086-089-092>099-120800-
...SOUTHEAST COLORADO...

CITY           SKY/WX    TMP DP  RH WIND       PRES   REMARKS
PUEBLO         CLOUDY    34  25  69 SW6       30.32S WCI  29
LA JUNTA       CLOUDY    37  28  70 W13       30.30S
LAMAR          CLOUDY    27  23  85 W5        30.27R WCI  22
SPRINGFIELD      N/A     29  22  75 NW10      30.27S WCI  20
$$



USA.gov is the U.S. government's official web portal to all federal, state and local government web resources and services.